Location: Newark
(52.1752°N, 10.4140°W)
Time: 04:42:00
(UTC+00:00)

N. Korean satellite - Pass Details

Date: 22 November 2019
Orbit: 455 x 507 km, 97.2° (Epoch: 13 December)

Event Time Altitude Azimuth Distance (km) Brightness Sun altitude
Rises 06:23:03 0° 17° (NNE) 2,621 10.4 -16.4°
Reaches altitude 10° 06:25:13 10° 23° (NNE) 1,726 9.5 -16.1°
Maximum altitude 06:28:50 49° 99° (E) 659 7.7 -15.6°
Drops below altitude 10° 06:32:23 10° 175° (S) 1,690 9.5 -15.0°
Sets 06:34:29 0° 181° (S) 2,559 10.4 -14.7°
